Regional Weather Roundup
Issued by NWS Green Bay, WI

Home | Current Version | Previous Version | Graphics & Text | Print | Product List | Glossary Off
Versions: 1 2 3 4 5 6 7 8 9 10 11 12 13 14 15 16 17 18 19 20 21 22 23 24 25 26 27 28 29 30 31 32 33 34 35 36 37 38 39 40 41 42 43 44 45 46 47 48 49 50

401
ASUS43 KGRB 241900
RWRGRB

NORTH-CENTRAL AND NORTHEAST WISCONSIN REGIONAL WEATHER ROUNDUP
NATIONAL WEATHER SERVICE GREEN BAY WI
200 PM CDT FRI MAR 24 2017

WIZ005-009-010>012-018-019-242000-
NORTH CENTRAL WISCONSIN

CITY           SKY/WX    TMP DP  RH WIND       PRES   REMARKS
IRONWOOD       CLOUDY    35  34  96 N6        30.08R FOG
MANITOWISH WTR NOT AVBL
ARBOR VITAE    NOT AVBL
EAGLE RIVER    NOT AVBL
LAND O LAKES   NOT AVBL
RHINELANDER    CLOUDY    36  35  96 NE6       30.01R FOG
PHILLIPS       NOT AVBL
ANTIGO         NOT AVBL
TOMAHAWK       NOT AVBL
MERRILL        NOT AVBL
$$

WIZ013-073-242000-
NORTHEAST WISCONSIN

CITY           SKY/WX    TMP DP  RH WIND       PRES   REMARKS
IRON MOUNTAIN  CLOUDY    37  33  85 N8        30.01R FOG
MARINETTE        N/A    N/A N/A N/A MISG        N/A
$$

WIZ017-030-035>037-045-242000-
CENTRAL WISCONSIN

CITY           SKY/WX    TMP DP  RH WIND       PRES   REMARKS
MEDFORD        NOT AVBL
WAUSAU         LGT RAIN  38  37  97 NE6       29.99R FOG
MOSINEE        LGT RAIN  37  37 100 N8        30.00R FOG
MARSHFIELD     RAIN      38  37  97 NE9       29.99R FOG
WISC RAPIDS    LGT RAIN  38  38 100 NE7       30.02R FOG
STEVENS POINT  NOT AVBL
WAUPACA        NOT AVBL
SHAWANO        NOT AVBL
CLINTONVILLE   NOT AVBL
WAUTOMA        CLOUDY    39  36  89 N10       29.98R
$$

WIZ038-039-048-051-242000-
FOX VALLEY

CITY           SKY/WX    TMP DP  RH WIND       PRES   REMARKS
NWS GREEN BAY  MIX PCPN  37  37 100 NE14      29.99R FOG
APPLETON       CLOUDY    37  36  93 NE10      29.95S FOG
OSHKOSH        CLOUDY    41  35  79 NE16      29.96R
FOND DU LAC    CLOUDY    47  39  74 NE14      29.95R
$$

WIZ022-050-052-242000-
EAST CENTRAL WISCONSIN

CITY           SKY/WX    TMP DP  RH WIND       PRES   REMARKS
EPHRAIM        NOT AVBL
WASHINGTON ISL NOT AVBL
STURGEON BAY   RAIN      35  34  96 N8        30.01F FOG
MANITOWOC      NOT AVBL
SHEBOYGAN      CLOUDY    45  38  76 NE17      29.96R
$$

LMZ563-521-522-541>543-242000-
LAKESHORE

STATION/POSITION TIME  TEMP    WIND        PRES    VSBY  WAVE
                       AIR SEA DIR/SP/G                  HT/PER
                 (UTC) (F)     (DEG/KT/KT) (MB)    (MI)  (FT/S)
SHEBOYGAN LKSHOR 1800   39      30/ 13/ 15 1014.6R
KEWAUNEE LKSHORE 1830   37      10/  9/ 12 1015.1R
NORTHPORT PIER   1840   33     340/  7/  9 1016.6S
SISTER BAY LKSHO 1806   34      20/ 10/ 11   N/A
CHAMBERS ISLAND  1840   34      10/  9/ 10 1015.9F
MENOMINEE LKSHOR 1830   34      20/  6/  7 1015.6R
$$




USA.gov is the U.S. government's official web portal to all federal, state and local government web resources and services.